CAPE
118 146 49 74 92 181 220 311 222 178 99 203 141 135 97 58 77 48 71 51 6 0 0 0 0 0 0 0 0 0 0 0 0 0 0 0 0 0 0 0 0 0 0 0 0
109 51 97 125 155 243 341 286 242 177 147 259 220 171 111 86 38 2 42 49 13 0 0 0 0 0 0 0 0 0 0 0 0 0 0 0 0 0 0 0 0 0 0 0 0
98 4 46 213 193 277 376 151 235 312 239 330 167 172 135 46 27 0 0 7 2 0 0 0 0 0 0 0 0 0 0 0 0 0 0 0 0 0 0 0 0 0 0 0 0
73 105 133 218 261 243 171 450 467 364 371 338 243 173 82 0 0 0 0 0 0 0 0 0 0 0 0 0 0 0 0 0 0 0 0 0 0 0 0 0 0 0 0 0 0
47 95 208 62 139 230 278 387 374 295 371 330 153 151 1 0 0 0 0 0 0 0 0 0 0 0 0 0 0 0 0 0 0 0 0 0 0 0 0 0 0 0 0 0 0
61 4 105 31 8 101 163 242 274 195 189 18 4 0 0 0 0 0 0 0 0 0 0 0 0 0 0 0 0 0 0 0 0 0 0 0 0 0 0 0 0 0 0 0 0
2 10 41 184 93 86 138 181 130 95 0 0 0 0 0 0 0 0 0 0 0 0 0 0 0 0 0 0 0 0 0 0 0 0 0 0 0 0 0 0 0 0 0 0 0
2 5 15 55 76 92 68 22 6 8 1 0 0 0 0 0 0 0 0 0 0 0 0 0 0 0 0 0 0 0 0 0 0 0 0 0 0 0 0 0 0 0 0 0 0
0 0 0 0 48 58 74 71 41 1 0 0 0 0 0 0 0 0 0 0 0 0 0 0 0 0 0 0 0 0 0 0 0 0 0 0 0 0 0 0 0 0 0 0 0
0 0 0 0 0 24 48 35 3 0 0 0 0 0 0 0 0 0 0 0 0 0 0 0 0 0 0 0 0 0 0 0 0 0 0 0 0 0 0 0 0 0 0 0 0
0 0 0 0 0 0 0 0 0 0 0 0 0 0 0 0 0 0 0 0 0 0 0 0 0 0 0 0 0 0 0 0 0 0 0 0 0 0 0 0 0 0 0 0 0
0 0 0 0 0 0 0 0 0 0 0 0 0 0 0 0 0 0 0 0 0 0 0 0 0 0 0 0 0 0 0 0 0 0 0 0 0 0 0 0 0 0 0 0 0
0 0 0 0 0 0 0 0 0 0 0 0 0 0 0 0 0 0 0 0 0 0 0 0 0 0 0 0 0 0 0 0 0 0 0 0 0 0 0 0 0 0 0 0 0
0 0 0 0 0 0 0 0 0 0 0 0 0 0 0 0 0 0 0 0 0 0 0 0 0 0 0 0 0 0 0 0 0 0 0 0 0 0 0 0 0 0 0 0 0
0 0 0 0 0 0 0 0 0 0 49 0 0 0 0 0 0 0 0 0 0 0 0 0 0 0 0 0 0 0 0 0 0 0 0 0 0 0 0 0 0 0 0 0 0
0 0 0 0 0 0 0 0 0 276 0 0 0 0 0 0 0 0 0 0 0 0 0 0 0 0 0 0 0 0 0 0 0 0 0 0 0 0 0 0 0 0 0 0 0
0 0 0 0 0 0 0 0 92 0 0 0 0 0 0 0 0 0 0 0 0 0 0 0 0 0 0 0 0 0 0 0 0 0 0 0 0 0 0 0 0 0 0 0 0
0 0 0 0 0 0 0 0 0 0 0 0 0 0 0 0 0 0 0 0 0 0 0 0 0 0 0 0 0 0 0 0 0 0 0 0 0 0 0 0 0 0 0 0 0
0 0 0 0 0 0 0 0 0 0 0 0 0 0 0 0 0 0 0 0 0 0 0 0 0 0 0 0 0 0 0 0 0 0 0 0 0 0 0 0 0 0 0 0 0
0 0 0 0 0 0 0 0 0 0 0 0 0 0 0 0 0 0 0 0 0 0 0 0 0 0 0 0 0 0 0 0 0 0 0 0 0 0 0 0 0 0 0 0 0
0 0 0 0 0 0 0 0 0 0 0 0 0 0 0 0 0 0 0 0 0 0 0 0 0 0 0 0 0 0 0 0 0 0 0 0 0 0 0 0 0 0 0 0 0
0 0 0 0 0 0 0 0 0 0 0 0 0 0 0 0 0 0 0 0 0 0 0 0 0 0 0 0 0 0 0 0 0 0 0 0 0 0 0 0 0 0 0 0 0
0 0 0 0 0 0 0 0 0 0 0 0 0 0 0 0 0 0 0 0 0 0 0 0 0 0 0 0 0 0 0 0 0 0 0 0 0 0 0 0 0 0 0 0 0
0 0 0 0 0 0 0 0 0 0 0 0 0 0 0 0 0 0 0 0 0 0 0 0 0 0 0 0 0 0 0 0 0 2 0 0 0 0 0 0 0 0 0 0 0
0 0 0 0 0 0 0 0 0 0 0 0 0 0 0 0 0 0 0 0 0 0 0 0 0 0 0 0 0 0 0 0 0 0 0 0 0 0 0 0 0 0 0 0 0
0 0 0 0 0 0 0 0 0 0 0 0 0 0 0 0 0 0 0 0 0 0 0 0 0 0 0 0 0 0 0 0 0 0 0 0 0 0 0 0 0 0 0 0 0
0 0 0 0 0 0 0 0 0 0 0 0 0 0 0 0 0 0 0 0 0 0 0 0 0 0 0 0 0 0 0 0 0 0 0 0 0 0 0 0 0 0 0 0 0
CIN
-0 -6 -0 -0 -4 -3 -1 -2 -0 -1 -14 -1 -4 -0 -0 -12 -16 -1 -0 -0 -0 -0 -0 -0 -0 -0 -0 -0 -0 -0 -0 -0 -0 -0 -0 -0 -0 -0 -0 -0 -0 -0 -0 -0 -0
-0 -0 -0 -0 -0 -3 -0 -3 -0 -5 -3 -0 -1 -0 -5 -14 -0 -5 -0 -0 -0 -0 -0 -0 -0 -0 -0 -0 -0 -0 -0 -0 -0 -0 -0 -0 -0 -0 -0 -0 -0 -0 -0 -0 -0
-0 -10 -0 -0 -4 -0 -4 -0 -1 -1 -3 -0 -2 -0 -1 -39 -12 -0 -0 -0 -0 -0 -0 -0 -0 -0 -0 -0 -0 -0 -0 -0 -0 -0 -0 -0 -0 -0 -0 -0 -0 -0 -0 -0 -0
-0 -0 -1 -0 -0 -6 -13 -0 -0 -0 -0 -0 -0 -13 -5 -0 -0 -0 -0 -0 -0 -0 -0 -0 -0 -0 -0 -0 -0 -0 -0 -0 -0 -0 -0 -0 -0 -0 -0 -0 -0 -0 -0 -0 -0
-0 -6 -0 -7 -8 -0 -0 -0 -0 -0 -0 -0 -14 -33 -23 -0 -0 -0 -0 -0 -0 -0 -0 -0 -0 -0 -0 -0 -0 -0 -0 -0 -0 -0 -0 -0 -0 -0 -0 -0 -0 -0 -0 -0 -0
-0 -12 -1 -16 -38 -38 -12 -0 -0 -0 -7 -92 -76 -0 -0 -0 -0 -0 -0 -0 -0 -0 -0 -0 -0 -0 -0 -0 -0 -0 -0 -0 -0 -0 -0 -0 -0 -0 -0 -0 -0 -0 -0 -0 -0
-4 -14 -6 -4 -10 -34 -26 -29 -27 -29 -14 -0 -0 -0 -0 -0 -0 -0 -0 -0 -0 -0 -0 -0 -0 -0 -0 -0 -0 -0 -0 -0 -0 -0 -0 -0 -0 -0 -0 -0 -0 -0 -0 -0 -0
-0 -5 -27 -1 -6 -0 -0 -0 -1 -27 -7 -0 -0 -0 -0 -0 -0 -0 -0 -0 -0 -0 -0 -0 -0 -0 -0 -0 -0 -0 -0 -0 -0 -0 -0 -0 -0 -0 -0 -0 -0 -0 -0 -0 -0
-0 -0 -0 -4 -1 -1 -4 -8 -24 -21 -0 -0 -0 -0 -0 -0 -0 -0 -0 -0 -0 -0 -0 -0 -0 -0 -0 -0 -0 -0 -0 -0 -0 -0 -0 -0 -0 -0 -0 -0 -0 -0 -0 -0 -0
-0 -0 -0 -0 -0 -4 -32 -46 -15 -0 -0 -0 -0 -0 -0 -0 -0 -0 -0 -0 -0 -0 -0 -0 -0 -0 -0 -0 -0 -0 -0 -0 -0 -0 -0 -0 -0 -0 -0 -0 -0 -0 -0 -0 -0
-0 -0 -0 -0 -0 -0 -0 -0 -0 -0 -0 -0 -0 -0 -0 -0 -0 -0 -0 -0 -0 -0 -0 -0 -0 -0 -0 -0 -0 -0 -0 -0 -0 -0 -0 -0 -0 -0 -0 -0 -0 -0 -0 -0 -0
-0 -0 -0 -0 -0 -0 -0 -0 -0 -0 -0 -0 -0 -0 -0 -0 -0 -0 -0 -0 -0 -0 -0 -0 -0 -0 -0 -0 -0 -0 -0 -0 -0 -0 -0 -0 -0 -0 -0 -0 -0 -0 -0 -0 -0
-0 -0 -0 -0 -0 -0 -0 -0 -0 -0 -0 -0 -0 -0 -0 -0 -0 -0 -0 -0 -0 -0 -0 -0 -0 -0 -0 -0 -0 -0 -0 -0 -0 -0 -0 -0 -0 -0 -0 -0 -0 -0 -0 -0 -0
-0 -0 -0 -0 -0 -0 -0 -0 -0 -0 -0 -0 -0 -0 -0 -0 -0 -0 -0 -0 -0 -0 -0 -0 -0 -0 -0 -0 -0 -0 -0 -0 -0 -0 -0 -0 -0 -0 -0 -0 -0 -0 -0 -0 -0
-0 -0 -0 -0 -0 -0 -0 -0 -0 -0 -1 -0 -0 -0 -0 -0 -0 -0 -0 -0 -0 -0 -0 -0 -0 -0 -0 -0 -0 -0 -0 -0 -0 -0 -0 -0 -0 -0 -0 -0 -0 -0 -0 -0 -0
-0 -0 -0 -0 -0 -0 -0 -0 -0 -0 -0 -0 -0 -0 -0 -0 -0 -0 -0 -0 -0 -0 -0 -0 -0 -0 -0 -0 -0 -0 -0 -0 -0 -0 -0 -0 -0 -0 -0 -0 -0 -0 -0 -0 -0
-0 -0 -0 -0 -0 -0 -0 -0 -11 -32 -0 -0 -0 -0 -0 -0 -0 -0 -0 -0 -0 -0 -0 -0 -0 -0 -0 -0 -0 -0 -0 -0 -0 -0 -0 -0 -0 -0 -0 -0 -0 -0 -0 -0 -0
-0 -0 -0 -0 -0 -0 -0 -0 -0 -0 -0 -0 -0 -0 -0 -0 -0 -0 -0 -0 -0 -0 -0 -0 -0 -0 -0 -0 -0 -0 -0 -0 -0 -0 -0 -0 -0 -0 -0 -0 -0 -0 -0 -0 -0
-0 -0 -0 -0 -0 -0 -0 -0 -0 -0 -0 -0 -0 -0 -0 -0 -0 -0 -0 -0 -0 -0 -0 -0 -0 -0 -0 -0 -0 -0 -0 -0 -0 -0 -0 -0 -0 -0 -0 -0 -0 -0 -0 -0 -0
-0 -0 -0 -0 -0 -0 -0 -0 -0 -0 -0 -0 -0 -0 -0 -0 -0 -0 -0 -0 -0 -0 -0 -0 -0 -0 -0 -0 -0 -0 -0 -0 -0 -0 -0 -0 -0 -0 -0 -0 -0 -0 -0 -0 -0
-0 -0 -0 -0 -0 -0 -0 -0 -0 -0 -0 -0 -0 -0 -0 -0 -0 -0 -0 -0 -0 -0 -0 -0 -0 -0 -0 -0 -0 -0 -0 -0 -0 -0 -0 -0 -0 -0 -0 -0 -0 -0 -0 -0 -0
-0 -0 -0 -0 -0 -0 -0 -0 -0 -0 -0 -0 -0 -0 -0 -0 -0 -0 -0 -0 -0 -0 -0 -0 -0 -0 -0 -0 -0 -0 -0 -0 -0 -0 -0 -0 -0 -0 -0 -0 -0 -0 -0 -0 -0
-0 -0 -0 -0 -0 -0 -0 -0 -0 -0 -0 -0 -0 -0 -0 -0 -0 -0 -0 -0 -0 -0 -0 -0 -0 -0 -0 -0 -0 -0 -0 -0 -0 -0 -0 -0 -0 -0 -0 -0 -0 -0 -0 -0 -0
-0 -0 -0 -0 -0 -0 -0 -0 -0 -0 -0 -0 -0 -0 -0 -0 -0 -0 -0 -0 -0 -0 -0 -0 -0 -0 -0 -0 -0 -0 -0 -0 -0 -0 -0 -0 -0 -0 -0 -0 -0 -0 -0 -0 -0
-0 -0 -0 -0 -0 -0 -0 -0 -0 -0 -0 -0 -0 -0 -0 -0 -0 -0 -0 -0 -0 -0 -0 -0 -0 -0 -0 -0 -0 -0 -0 -0 -0 -0 -0 -0 -0 -0 -0 -0 -0 -0 -0 -0 -0
-0 -0 -0 -0 -0 -0 -0 -0 -0 -0 -0 -0 -0 -0 -0 -0 -0 -0 -0 -0 -0 -0 -0 -0 -0 -0 -0 -0 -0 -0 -0 -0 -0 -0 -0 -0 -0 -0 -0 -0 -0 -0 -0 -0 -0
-0 -0 -0 -0 -0 -0 -0 -0 -0 -0 -0 -0 -0 -0 -0 -0 -0 -0 -0 -0 -0 -0 -0 -0 -0 -0 -0 -0 -0 -0 -0 -0 -0 -0 -0 -0 -0 -0 -0 -0 -0 -0 -0 -0 -0
Wind_Speed
30 31 22 15 13 17 11 16 13 12 6 10 14 19 21 7 6 10 13 11 6 4 3 8 8 9 4 4 2 1 3 7 7 11 9 7 5 2 1 4 3 2 2 4 6
31 27 25 19 16 15 14 15 14 12 9 13 17 23 19 5 11 16 11 10 10 9 7 12 15 10 6 3 2 2 2 4 3 4 10 7 5 5 4 7 4 4 5 5 5
30 22 21 22 11 14 16 10 12 13 16 16 17 22 20 7 2 7 14 12 9 5 4 4 9 9 6 1 4 4 3 8 4 5 5 5 5 2 6 5 3 4 8 6 4
27 29 19 17 15 11 13 14 17 15 17 17 19 17 13 4 5 6 17 15 9 3 5 6 9 7 8 5 2 7 6 3 4 2 3 5 3 4 2 3 4 1 3 3 3
27 33 26 17 15 13 14 14 16 13 18 18 15 12 5 7 6 10 17 10 1 2 5 9 13 7 8 7 5 11 5 6 6 7 6 2 2 1 3 4 3 5 6 6 5
27 29 28 15 14 12 14 16 17 18 19 11 8 1 6 16 7 12 10 6 2 4 5 3 5 8 10 5 5 6 10 7 7 5 5 1 2 2 4 4 3 5 9 6 5
22 20 26 26 15 14 18 19 19 18 11 10 6 4 19 8 8 10 6 4 3 3 6 5 4 3 5 9 6 6 8 6 9 6 4 4 5 6 5 5 5 6 6 6 6
19 19 21 24 24 22 22 18 16 12 11 8 8 6 9 3 6 11 7 10 10 13 12 7 10 11 4 9 3 3 1 5 5 6 2 5 4 4 3 7 8 9 8 7 7
17 17 12 18 14 16 16 14 12 12 10 5 6 5 6 6 6 9 7 6 7 8 8 6 7 6 4 8 6 1 5 3 3 5 4 2 5 3 5 7 9 10 11 11 10
17 15 12 7 9 7 10 6 6 7 9 4 4 9 7 5 5 7 4 5 7 3 5 7 6 5 4 2 6 7 5 3 2 4 3 7 15 10 10 12 15 15 15 14 13
15 13 11 5 9 6 3 3 1 8 11 9 4 8 2 8 3 10 6 4 3 8 6 7 8 7 6 5 4 6 6 5 2 2 5 7 13 17 12 14 16 16 15 15 14
14 12 11 9 9 9 3 5 2 1 10 12 9 5 3 4 6 16 10 4 5 7 2 6 8 2 2 4 6 5 5 3 2 1 4 8 20 18 16 16 14 14 13 12 8
13 11 11 3 4 6 6 5 1 4 5 9 5 6 5 8 7 11 8 3 8 8 7 8 6 0 0 4 5 5 2 2 3 6 0 10 12 7 2 6 6 8 7 5 6
11 10 10 5 1 1 3 3 4 4 5 13 10 8 4 3 5 4 5 3 6 8 7 9 3 2 3 4 4 3 3 2 3 5 4 5 7 7 6 9 10 8 8 7 8
7 8 9 7 5 2 2 4 4 3 4 10 6 6 6 5 2 9 4 6 7 5 3 3 3 4 4 3 4 4 1 2 1 1 3 3 4 8 3 7 6 6 10 9 9
4 5 1 2 2 3 1 2 2 1 5 4 5 8 2 7 4 4 4 7 2 8 13 5 2 2 3 2 4 6 2 1 1 2 3 2 3 6 4 2 1 2 4 8 9
3 8 3 2 2 2 1 1 2 6 1 3 3 4 4 8 5 7 5 6 3 3 2 3 3 2 1 2 2 4 4 2 2 2 3 3 4 13 5 5 4 3 2 2 6
5 4 5 3 2 4 0 2 7 2 3 2 1 3 4 6 4 5 2 4 6 3 3 3 3 1 1 2 2 1 3 2 4 3 3 3 8 7 1 3 7 10 8 7 6
1 3 3 2 1 2 3 7 3 3 4 5 3 2 2 2 1 2 5 3 3 4 2 1 4 2 3 2 3 3 2 3 3 2 4 4 7 15 6 11 14 10 8 8 8
2 2 3 1 3 3 3 5 2 1 2 1 1 2 2 3 2 1 1 2 3 0 2 2 2 2 2 1 5 3 5 2 1 4 5 5 7 7 6 6 2 8 9 9 8
0 2 2 2 3 1 5 5 4 2 2 1 2 3 2 2 1 1 2 3 2 3 1 3 1 3 3 6 5 4 4 1 4 3 4 6 4 5 5 6 6 3 3 4 5
0 2 2 2 2 3 3 4 3 3 1 0 2 2 1 3 2 2 2 1 4 5 2 1 1 4 2 3 3 3 3 7 4 5 4 3 11 1 5 6 6 7 5 5 6
3 2 1 3 4 3 2 3 1 3 3 1 1 1 1 3 2 2 2 1 6 6 4 5 2 3 3 4 3 6 10 8 2 2 9 5 7 1 0 2 2 6 8 9 11
1 3 4 5 2 4 3 2 3 1 2 2 1 1 1 1 0 2 2 2 3 2 2 4 3 6 4 3 2 5 9 14 13 6 9 16 20 17 14 15 13 14 16 17 16
5 3 2 4 5 5 1 3 3 3 0 2 2 4 3 2 1 3 2 2 2 1 2 3 5 4 12 13 12 16 16 15 20 21 14 10 19 18 15 14 19 17 16 15 16
2 0 2 1 1 0 2 2 4 3 5 3 4 2 6 4 4 4 6 4 3 5 6 3 3 1 7 11 11 18 20 23 25 25 27 26 33 25 26 18 12 13 14 14 14
1 1 1 2 2 1 1 2 1 0 1 2 4 5 5 10 8 7 6 1 1 5 10 5 4 2 6 5 14 19 21 24 15 17 20 22 27 18 16 13 12 13 12 14 14
Wind_Direction
355 359 17 31 41 90 105 119 121 118 130 117 112 103 95 133 125 120 59 58 58 30 128 143 151 139 150 96 31 287 165 152 143 166 138 146 155 93 58 132 86 29 56 84 119
10 26 29 37 52 91 107 109 115 124 127 108 109 124 123 119 82 68 14 19 17 19 147 162 150 152 118 90 35 313 170 119 63 91 143 134 152 127 182 150 112 124 108 118 136
27 30 28 33 67 95 109 99 121 126 134 111 113 123 114 154 131 27 1 345 335 350 82 146 138 140 119 79 23 31 78 131 87 88 131 128 126 146 163 180 147 172 149 146 156
11 10 5 39 66 101 97 100 115 123 109 120 132 124 147 162 67 2 344 337 323 294 119 135 155 124 129 128 33 105 60 88 108 55 112 131 120 141 207 91 105 110 127 186 205
11 23 42 62 73 96 100 106 106 108 113 129 140 151 185 75 33 338 339 337 307 145 105 150 148 128 114 107 100 92 112 74 88 89 63 137 116 63 206 168 243 222 210 227 252
12 21 19 66 82 87 94 101 102 115 110 109 122 116 99 71 349 341 342 323 60 122 94 101 112 109 90 72 44 106 107 100 65 69 61 231 165 269 176 162 183 193 211 223 227
17 26 30 50 90 93 96 98 105 112 80 60 32 115 64 49 341 344 9 343 317 119 95 57 99 87 126 105 115 123 105 109 41 18 40 331 207 221 145 198 215 198 198 214 228
20 24 51 40 64 77 81 86 81 71 40 12 22 87 79 345 341 21 5 80 80 77 94 86 79 87 42 110 87 129 167 146 47 2 22 312 233 169 180 212 227 217 218 222 232
16 26 39 74 58 83 78 76 62 37 17 40 54 72 68 338 24 338 7 75 90 75 72 84 70 65 130 142 127 42 152 121 126 39 326 310 270 164 198 218 237 233 233 235 244
6 21 25 81 98 109 99 88 359 356 334 179 84 86 26 359 330 331 351 10 66 92 76 45 67 99 108 215 171 165 136 144 163 34 313 266 265 253 227 238 253 251 244 248 249
12 5 9 27 95 98 136 282 346 3 28 52 63 74 20 324 304 17 357 337 31 53 89 36 81 78 58 35 53 112 123 124 98 48 292 268 278 275 266 252 254 253 249 250 251
11 6 356 10 69 81 82 71 81 90 63 28 35 56 26 346 49 13 1 47 50 82 128 87 80 67 36 71 85 91 128 99 122 24 303 310 290 276 259 252 251 260 255 256 248
5 7 359 348 330 39 65 83 162 194 82 34 24 25 356 5 41 1 3 39 51 65 68 87 96 11 91 88 103 54 24 68 5 322 180 307 272 265 212 260 254 243 251 248 218
348 3 7 311 269 39 45 351 311 298 73 356 360 38 341 335 67 357 17 24 51 82 62 70 60 102 106 76 331 151 39 41 9 336 284 350 288 289 265 273 261 249 221 218 204
346 354 35 42 116 52 46 321 312 241 83 346 344 331 341 50 348 31 11 41 75 53 261 63 70 67 67 21 342 84 62 51 13 358 322 151 249 277 315 276 255 231 220 215 214
14 358 307 38 72 91 157 349 271 229 57 354 335 355 30 27 45 332 48 59 103 71 66 88 95 47 80 69 60 139 159 110 120 289 258 90 270 274 238 234 211 177 205 216 216
66 64 61 350 91 72 333 253 110 58 316 358 16 13 64 17 47 23 32 45 40 109 113 132 63 65 348 144 130 230 236 283 251 216 285 137 252 251 248 233 246 201 177 197 226
84 122 53 47 79 125 226 193 77 208 199 177 243 58 71 359 46 20 88 90 58 12 116 156 169 116 55 349 328 68 300 271 270 281 322 157 238 251 261 303 263 252 269 277 242
168 105 109 88 144 239 217 54 92 182 154 170 145 131 74 70 70 85 44 53 29 4 41 165 109 100 43 11 330 109 223 25 92 124 269 253 276 272 278 258 236 243 243 248 239
144 137 82 98 154 227 84 102 69 143 134 225 125 324 135 121 184 120 113 140 135 99 305 120 146 48 69 210 71 326 123 178 158 285 270 241 271 255 320 348 228 222 237 253 262
349 151 74 111 205 117 74 83 126 212 249 55 120 126 103 135 70 81 96 133 204 150 79 143 184 119 223 202 189 159 198 176 300 260 291 306 269 205 259 320 344 360 313 291 281
35 58 66 238 58 39 55 101 141 151 245 103 117 105 141 163 145 161 149 216 167 167 162 81 207 222 208 107 264 246 234 212 245 182 245 317 271 358 301 311 302 304 301 309 300
47 333 90 276 71 73 99 83 66 154 154 142 120 308 190 173 176 209 201 85 177 182 171 166 208 272 180 162 182 223 196 212 208 336 230 244 256 103 204 328 331 303 311 307 299
22 15 10 57 23 95 134 121 120 41 113 114 80 140 165 180 272 152 210 125 193 208 129 183 213 245 275 26 84 213 212 211 207 217 241 231 273 260 274 305 308 307 300 299 296
10 85 10 5 38 39 57 138 144 179 50 205 153 230 190 193 206 242 198 152 153 161 110 271 264 230 259 266 251 255 252 223 216 225 234 252 252 265 268 282 292 297 298 298 296
63 40 134 46 259 166 360 184 180 175 181 196 224 171 203 234 229 196 185 209 221 163 181 176 261 286 274 265 265 259 251 240 240 242 252 261 271 277 277 285 276 288 297 293 294
86 86 250 35 325 250 59 135 121 300 186 304 190 171 209 244 248 251 230 317 218 186 192 193 220 283 280 336 312 279 254 228 224 225 235 242 248 276 277 271 282 291 290 287 287